RH
12 12 11 11 10 9 9 9 9 8 8 7 8 7 7 8 7 7 7 7 7 7 7 7 7 7 7 7 8 10 10 12 16 17 15 14 14 13 13 12 11 10 10 10 8 8 8 9 13 17 20 21 21 22 22 22 25 31 47 53 53 65 62 57 61 52 43 39 39 43 42 46 51 48 49 55 61 68 73 79 84 75 75 85 89 97 102 99
13 13 12 11 10 9 9 8 8 8 8 8 8 8 8 8 7 8 7 7 7 6 7 7 7 7 7 7 8 11 11 13 16 14 13 14 13 12 12 11 11 11 10 10 9 7 9 10 11 14 17 18 19 20 21 21 23 38 57 54 55 67 57 46 50 43 32 32 40 44 40 41 47 44 47 70 79 73 81 94 95 92 95 97 97 101 100 99
13 13 12 11 9 8 8 8 8 8 8 8 8 8 8 8 8 8 7 8 7 7 7 7 7 6 7 6 8 13 13 14 15 15 14 14 13 13 12 12 11 11 10 10 9 8 8 9 10 12 13 15 17 18 20 22 24 33 43 48 56 64 51 35 36 35 27 30 42 42 37 42 48 45 53 75 78 73 81 92 97 100 101 100 100 101 99 101
11 11 9 9 8 8 8 8 9 8 8 8 8 8 9 9 9 9 9 8 7 8 7 7 7 6 6 6 10 14 14 17 17 16 16 14 15 14 13 12 11 11 11 10 9 9 9 10 11 10 12 13 14 16 19 20 24 30 37 46 52 51 42 28 26 28 25 30 39 40 41 48 51 51 57 66 72 76 75 82 97 101 100 100 100 100 100 100
9 9 8 8 9 9 9 9 8 8 8 8 8 9 9 8 8 9 9 9 8 7 8 8 7 7 6 5 12 14 17 24 21 16 16 15 15 14 14 13 12 11 11 11 9 9 11 13 12 12 12 12 13 14 16 18 22 32 37 39 40 39 35 25 19 21 27 33 37 41 46 50 53 58 60 63 74 80 73 80 96 100 100 101 100 100 101 100
10 9 10 10 10 10 9 9 8 9 9 8 8 9 9 8 7 7 8 10 9 8 8 8 7 8 7 10 16 15 18 25 20 15 16 15 15 14 14 13 13 12 11 12 10 10 11 13 13 13 13 13 17 15 14 18 20 29 33 27 27 30 31 23 20 26 30 33 37 44 49 52 55 62 65 65 73 76 71 77 89 99 100 99 101 100 100 100
12 11 11 11 10 10 10 10 9 9 9 9 9 8 8 8 7 7 7 9 10 10 8 8 8 8 11 16 19 16 17 19 16 16 15 14 14 13 13 13 14 12 11 12 10 11 11 13 13 12 15 16 18 16 17 20 17 24 29 26 23 23 29 23 23 31 31 34 43 45 48 54 56 61 64 62 66 70 70 74 84 94 96 99 101 100 100 101
12 12 11 11 10 11 11 10 10 10 10 10 10 10 9 8 8 7 6 7 9 11 9 8 9 10 15 18 18 16 16 18 17 16 15 14 14 12 12 12 13 14 12 11 11 13 12 13 14 13 16 18 17 18 19 20 22 26 26 26 24 24 33 30 28 31 31 39 43 43 51 57 57 58 61 60 62 67 69 73 80 85 91 98 99 99 100 99
12 12 11 10 10 10 10 10 10 10 11 11 12 11 10 9 8 7 7 7 9 10 9 8 10 12 17 18 17 17 17 19 18 18 17 14 13 12 12 12 14 15 12 11 12 13 14 13 14 13 16 19 18 20 20 18 23 29 26 24 24 29 35 31 33 36 36 41 38 44 59 58 54 57 59 59 60 64 68 70 75 81 87 91 91 93 95 95
12 12 11 11 10 10 10 10 10 10 11 12 13 12 11 10 8 8 8 8 9 10 10 10 13 15 17 16 17 19 18 18 19 20 18 14 13 12 12 13 15 15 13 12 12 15 15 13 15 14 14 17 18 22 23 19 22 28 27 25 24 27 30 29 35 38 38 39 36 46 63 56 48 58 63 59 58 62 66 70 72 79 81 80 81 83 87 90
13 13 12 12 10 10 10 10 10 10 11 12 13 13 11 8 8 9 9 10 10 10 10 13 15 15 14 14 15 19 18 18 20 19 17 15 14 12 13 15 16 16 14 13 13 15 15 15 16 14 14 18 20 24 24 23 24 25 25 26 28 29 28 33 36 32 35 39 36 42 56 56 51 61 64 55 57 60 62 67 70 73 73 72 74 74 78 82
13 12 12 12 11 12 10 10 10 9 11 12 13 12 9 9 10 12 12 11 12 11 12 15 15 15 15 13 16 19 18 19 19 18 17 15 13 14 15 15 17 17 15 14 14 15 15 16 14 13 16 18 20 21 23 28 26 24 26 23 33 47 40 34 35 28 32 39 34 32 44 61 67 63 57 52 58 59 58 63 64 66 67 67 70 69 70 72
14 12 11 11 12 12 11 11 11 10 11 11 12 10 8 11 12 13 13 12 14 13 14 16 15 17 16 15 16 17 17 18 18 16 15 14 14 16 15 16 17 16 16 15 15 15 15 14 13 16 18 19 21 21 24 27 21 23 31 31 41 57 51 36 33 28 30 37 33 26 40 69 77 59 50 54 58 59 58 58 58 61 62 63 65 66 66 66
12 10 9 10 11 12 12 12 11 11 11 11 10 8 9 14 15 15 14 14 15 15 17 18 17 15 14 16 16 15 15 16 16 14 13 15 17 17 16 16 16 16 16 15 14 15 16 18 17 19 23 25 22 23 37 43 40 35 32 50 61 46 40 43 43 36 29 35 34 27 43 71 76 58 50 53 55 60 60 56 56 56 57 59 60 62 64 63
10 9 9 10 10 11 12 11 12 11 11 10 9 8 12 15 15 15 16 16 17 19 20 18 18 15 12 15 16 14 15 14 15 15 15 18 19 18 17 16 17 18 16 15 15 16 20 20 19 24 26 25 28 42 60 62 67 61 33 53 74 47 42 49 48 48 36 33 33 29 47 72 74 59 51 51 53 59 59 56 57 55 55 56 56 58 59 59
9 9 9 11 11 11 12 12 12 11 11 11 9 10 15 16 16 18 19 18 19 21 21 19 18 18 16 16 16 15 15 15 17 19 19 20 20 20 18 17 18 18 17 18 18 20 23 21 22 29 28 32 50 62 65 61 71 76 48 46 58 49 52 48 43 54 45 35 38 44 62 78 74 59 52 52 51 55 57 55 55 56 56 55 54 55 55 56
9 10 10 11 12 12 12 12 11 11 11 10 10 13 16 17 17 17 16 16 17 17 18 18 18 19 19 17 17 17 17 18 18 20 20 21 22 21 20 19 19 18 19 20 20 21 22 24 27 30 35 45 58 55 45 52 67 74 67 59 58 56 53 49 51 57 50 49 56 64 75 80 73 60 52 50 49 51 54 53 54 55 55 55 55 55 54 55
9 11 12 12 13 13 12 12 11 10 9 10 12 14 16 19 19 16 15 16 17 15 15 17 18 19 19 21 23 19 18 19 18 19 20 21 22 22 21 20 20 19 20 20 21 23 22 26 32 37 47 50 56 60 45 46 58 58 62 65 65 68 64 60 62 58 58 66 71 73 77 77 69 58 52 49 48 50 50 51 52 53 54 55 55 55 55 55
9 11 11 11 12 11 11 10 9 9 8 10 12 13 14 16 14 13 13 14 17 20 21 22 22 24 23 24 23 18 17 17 17 17 17 21 21 20 20 19 20 20 24 27 26 30 32 38 48 54 61 58 59 68 55 51 58 53 60 65 61 68 73 71 65 61 65 72 77 78 77 75 68 60 54 49 48 49 48 49 49 50 52 53 54 54 55 55
9 10 9 10 9 9 10 9 9 9 8 9 11 13 14 14 18 19 16 16 20 24 26 25 24 26 26 25 21 17 17 15 16 16 15 18 18 17 17 17 21 24 37 49 39 35 41 54 67 63 63 65 61 66 66 65 66 60 62 68 68 69 68 68 66 66 68 73 79 80 76 73 67 63 57 50 51 51 49 48 48 48 49 50 52 52 53 54
9 9 9 9 8 8 9 8 9 9 8 9 9 14 16 15 21 23 21 22 24 23 23 24 25 25 26 27 23 18 16 13 13 16 17 18 18 18 19 24 33 35 47 59 46 34 39 56 65 59 64 67 63 73 72 61 64 67 63 65 70 65 57 61 68 68 68 74 80 76 75 74 70 67 59 52 54 52 50 50 48 47 46 48 48 49 50 50
7 7 8 7 7 8 7 8 9 9 9 8 8 14 17 16 17 18 21 25 25 23 22 22 22 24 26 26 25 21 15 15 15 15 20 20 19 22 23 32 43 40 44 57 52 42 44 51 53 59 72 66 59 70 65 53 63 67 64 67 66 58 56 61 68 71 69 75 81 80 81 80 76 73 64 56 55 52 49 48 47 46 45 46 46 47 48 47
6 7 7 6 7 7 7 9 9 9 8 7 9 12 15 15 16 16 19 25 28 25 23 22 20 23 25 24 26 23 18 23 24 19 21 23 23 29 30 38 50 45 45 55 54 48 45 43 47 60 70 59 52 59 59 55 60 59 59 60 56 54 54 52 62 73 71 72 80 83 85 84 80 77 69 58 52 51 51 48 47 47 46 46 45 45 46 45
6 7 6 7 7 6 8 10 11 10 6 7 8 8 15 16 16 18 19 25 29 26 24 23 23 23 25 25 26 26 25 27 29 23 23 26 27 31 34 42 56 54 49 53 49 47 44 39 46 57 62 57 48 52 60 54 53 62 64 53 52 58 54 50 62 70 69 71 75 76 79 79 78 78 70 60 57 56 56 53 49 48 47 47 47 46 46 46
6 6 6 7 7 7 8 9 13 10 6 9 6 8 17 15 17 21 20 26 26 24 27 24 23 24 23 26 25 24 26 27 29 25 23 27 27 32 36 41 54 60 59 54 46 44 41 38 45 51 56 57 47 50 58 53 54 61 59 52 52 56 58 63 65 64 67 66 63 66 69 71 78 85 75 64 67 66 59 58 54 49 48 47 48 47 46 47
6 6 7 7 7 7 7 11 14 9 9 11 6 14 19 16 24 23 28 50 41 22 26 24 23 26 23 26 24 22 28 32 29 23 21 25 25 30 38 43 49 56 63 59 48 46 44 43 49 50 54 56 52 51 49 54 59 51 49 58 59 59 64 69 66 65 69 61 56 64 66 67 72 80 81 73 73 71 62 63 61 54 51 48 47 47 46 48
6 7 7 7 8 7 7 12 11 8 11 10 8 19 19 19 27 22 32 60 45 21 26 27 22 24 25 25 23 26 34 34 26 21 21 24 24 27 39 52 52 50 60 60 49 45 46 53 56 50 52 55 53 49 47 57 54 40 49 62 60 60 61 66 68 67 67 60 60 63 64 78 80 75 86 84 76 75 69 65 64 59 56 50 47 47 47 48
7 7 8 9 7 7 9 9 8 9 11 9 10 16 21 25 25 29 40 38 22 24 32 28 23 22 24 24 23 29 34 31 27 24 22 21 22 25 36 51 53 51 57 59 53 45 47 58 56 47 50 52 47 43 49 56 47 45 63 66 62 65 69 76 77 77 73 63 63 62 63 84 88 78 87 88 81 81 74 66 64 61 59 53 49 48 48 49
7 7 9 9 7 9 9 7 9 10 9 11 10 10 21 24 19 35 47 25 14 32 33 25 27 24 23 26 27 29 31 32 33 27 23 24 23 25 35 40 43 51 54 58 62 52 49 56 53 49 51 49 46 49 59 56 43 48 61 64 66 68 75 81 76 81 80 68 66 60 60 78 78 75 90 92 89 85 74 68 65 60 58 55 50 49 49 50
8 10 9 9 9 9 8 9 10 10 13 14 9 11 16 23 41 47 30 16 22 32 29 27 32 33 34 40 41 37 36 37 36 28 23 26 23 23 30 28 32 49 51 54 60 51 48 55 54 50 46 46 50 53 60 56 47 51 55 60 58 50 68 88 88 86 73 66 73 58 55 73 71 75 89 86 84 81 73 71 69 64 61 56 52 50 49 50
10 11 9 11 12 10 9 9 9 12 16 13 10 14 8 26 71 62 15 14 31 32 35 40 46 53 57 57 48 43 48 44 39 40 41 41 37 36 38 34 39 57 61 57 54 48 48 50 47 44 42 46 47 43 48 54 53 50 47 48 46 40 57 74 83 88 65 51 63 59 56 67 68 71 76 74 76 77 75 73 72 70 63 54 50 49 49 50
12 12 11 13 14 15 13 8 11 15 15 15 13 15 21 32 48 41 24 27 29 33 44 47 54 64 68 67 55 51 59 52 46 53 60 62 61 60 59 58 57 55 53 53 52 49 47 46 45 43 41 42 43 43 48 55 52 46 47 53 60 66 66 62 73 87 71 48 49 56 54 56 60 55 52 63 72 72 72 68 65 64 57 50 49 48 50 51
14 13 13 13 14 18 14 8 13 14 13 20 16 21 50 51 24 25 45 39 25 38 50 53 62 65 63 62 56 56 56 49 49 52 57 66 71 71 67 67 65 50 42 49 58 57 49 47 46 41 39 37 43 50 46 48 49 47 56 60 68 84 77 71 80 70 53 48 49 54 53 54 52 41 44 60 61 61 65 59 56 56 52 50 50 50 52 53
15 15 14 14 15 17 17 12 12 16 17 20 22 28 39 33 21 34 49 43 43 54 56 62 66 53 49 52 54 60 50 42 54 57 58 67 71 73 67 64 66 62 61 60 60 60 47 36 35 36 38 38 45 50 44 47 51 53 62 55 59 76 64 61 75 58 46 58 56 45 48 61 55 40 55 67 58 58 60 56 56 55 54 53 51 52 53 53
14 16 14 16 17 15 21 20 13 18 19 17 38 51 33 19 31 43 45 50 61 61 55 62 60 43 46 54 56 57 42 38 57 64 63 67 67 67 64 64 69 69 67 55 49 60 48 33 37 40 40 41 43 48 50 51 48 49 57 48 46 60 63 66 73 69 70 78 80 67 57 66 57 45 64 72 61 61 55 54 58 53 53 55 52 52 50 50
14 15 14 17 17 14 22 24 17 20 20 23 46 56 45 40 39 44 55 56 57 59 53 52 52 44 47 55 60 59 43 36 54 62 61 64 66 65 65 69 69 65 63 52 50 60 47 35 46 46 40 42 42 44 48 45 40 44 46 40 39 46 62 68 56 64 77 69 71 70 56 58 49 42 67 74 64 64 59 57 58 52 54 56 52 49 46 48
15 16 15 15 16 17 23 24 22 20 15 30 51 47 49 54 44 58 79 66 56 66 58 45 42 38 43 51 56 63 53 38 47 57 53 53 57 58 66 69 62 63 68 59 55 61 55 45 47 45 37 39 44 44 45 42 40 43 39 36 39 41 52 57 47 61 74 59 56 62 61 64 52 43 61 65 59 61 61 61 59 54 57 56 51 45 42 45
16 18 15 16 17 16 21 25 28 24 16 44 75 63 56 59 50 65 80 67 64 68 59 50 42 39 49 50 46 61 63 43 48 61 49 45 50 52 62 65 57 65 70 60 57 60 58 49 41 44 43 42 45 43 45 48 40 37 37 32 36 42 44 47 49 51 49 49 59 69 73 69 59 61 61 50 51 54 53 58 62 59 56 52 46 39 37 40
19 19 15 18 19 14 20 26 23 18 21 52 78 63 55 61 59 65 70 65 64 58 50 52 47 45 54 52 47 58 63 49 52 58 42 39 48 48 56 59 55 65 66 58 64 66 57 46 39 44 46 43 45 44 53 60 45 39 46 43 50 63 57 49 54 55 52 58 63 67 73 64 61 74 62 41 48 54 50 56 60 56 48 41 37 33 32 33
21 21 16 17 21 19 18 16 16 30 47 61 69 63 58 60 61 69 71 65 57 46 46 55 53 46 48 54 54 55 65 66 59 54 47 49 50 44 55 63 61 70 67 55 64 70 60 48 46 50 46 37 38 46 57 60 55 57 58 53 57 66 64 55 56 64 72 77 77 79 78 57 47 60 52 40 48 55 52 52 52 47 36 29 30 29 28 28
19 23 19 15 23 24 15 17 36 65 77 69 67 70 65 56 58 70 73 68 60 48 48 58 60 52 48 52 52 55 72 77 66 59 56 52 45 38 50 64 68 73 64 52 60 67 58 54 61 65 55 41 40 51 58 55 61 66 57 57 61 58 59 51 49 74 88 80 81 89 76 47 36 45 46 42 48 54 53 49 45 39 28 25 26 24 26 27
19 26 21 14 22 19 14 37 64 79 81 72 66 68 65 57 53 58 62 61 57 50 46 52 61 62 57 53 54 64 72 70 66 63 55 51 49 46 52 59 68 75 62 53 61 63 60 65 72 68 54 43 39 49 59 57 60 61 54 61 68 68 72 56 46 72 85 74 83 96 82 51 38 48 51 47 49 52 52 50 45 35 26 26 26 23 27 27
18 23 18 14 19 13 16 46 68 74 76 71 64 62 63 60 50 48 53 53 49 45 45 49 54 53 52 54 60 66 61 55 60 59 56 65 62 52 54 55 64 74 63 56 61 61 63 69 70 65 56 48 42 47 56 56 54 56 61 72 69 68 81 76 66 75 76 78 91 99 87 51 36 56 61 49 50 49 46 47 45 38 29 26 26 24 26 27
14 17 16 16 15 12 25 48 62 72 69 55 52 56 54 53 53 51 52 52 50 47 48 54 52 45 52 64 68 66 53 43 48 51 56 70 63 49 53 57 60 63 53 52 59 55 54 58 60 61 57 53 56 61 59 54 53 56 68 82 79 76 86 84 79 78 73 75 78 81 77 44 31 57 60 50 56 53 43 41 40 40 35 26 26 24 22 23
13 13 12 15 11 11 28 43 54 71 72 55 51 58 55 51 55 56 52 54 56 51 47 50 51 51 60 66 65 66 58 44 44 52 57 65 65 57 57 58 61 61 52 53 58 54 54 57 54 53 50 46 48 50 52 55 58 59 69 83 84 82 79 71 73 80 77 76 71 68 64 35 23 44 47 44 57 53 42 38 35 37 33 26 27 23 19 22
12 16 17 18 13 13 27 33 34 52 69 64 51 52 58 55 53 57 55 52 53 52 48 50 52 54 57 60 64 68 67 58 55 58 60 64 65 61 62 64 63 62 59 56 57 63 73 72 64 60 54 46 38 34 43 54 52 48 57 74 84 83 71 68 85 91 83 86 79 60 51 40 31 35 32 32 40 41 39 36 31 30 26 26 29 21 17 21
14 25 29 23 15 20 32 31 29 40 52 53 44 43 53 54 51 55 54 50 52 53 52 53 52 50 48 52 60 68 69 64 62 61 62 71 73 63 63 70 70 68 69 66 61 65 68 63 68 74 62 50 44 39 43 52 49 44 49 59 77 89 79 71 79 77 70 78 70 48 49 53 40 30 28 30 30 32 34 30 27 27 25 29 32 23 19 22
19 28 29 24 23 33 37 29 33 46 52 56 59 57 59 57 52 53 51 52 57 53 49 51 50 52 57 51 43 52 57 48 52 63 65 74 83 70 58 66 77 82 83 75 66 63 59 56 67 80 74 62 60 56 55 60 58 56 59 57 63 82 86 75 67 62 62 62 51 42 51 52 38 30 30 29 28 29 29 28 29 31 32 35 34 25 20 21
21 25 25 24 28 39 45 35 35 48 57 67 70 65 63 58 51 54 57 58 59 51 44 43 39 50 74 68 45 51 55 33 28 49 64 73 80 74 61 56 69 84 84 78 71 59 58 70 80 84 80 72 67 64 64 70 70 67 67 66 63 70 78 75 66 60 59 56 46 43 49 47 37 35 34 31 31 32 32 34 36 37 36 36 32 26 21 21
17 18 20 26 33 42 46 38 38 47 53 55 53 52 62 62 49 52 61 58 50 45 41 36 33 52 83 81 58 56 56 37 22 33 55 66 67 74 74 58 60 76 76 75 77 57 48 73 92 89 75 64 65 69 67 70 78 72 61 58 61 68 75 76 72 69 69 66 58 54 60 59 45 35 36 35 34 36 39 40 37 34 31 29 28 25 22 22
13 11 11 21 36 45 41 34 40 48 43 39 41 47 60 63 51 49 55 50 42 39 38 36 43 66 86 85 73 62 52 43 35 33 45 50 45 52 58 49 56 76 78 76 78 64 53 68 84 80 65 57 63 69 65 61 66 65 55 49 51 62 73 73 70 71 71 67 65 68 72 62 41 33 36 36 36 41 42 37 31 28 26 26 26 25 23 23
10 9 8 14 29 41 40 38 40 34 23 28 43 51 53 49 45 42 37 38 46 45 38 35 45 63 78 82 78 63 48 46 43 38 40 43 41 43 45 44 51 68 84 88 85 81 73 67 69 68 64 68 70 64 60 57 50 46 46 46 45 50 59 60 58 60 61 58 62 66 58 41 31 34 37 34 35 37 34 30 28 27 26 26 27 26 25 24
Wind_Speed
4 4 4 5 5 4 4 4 4 4 4 4 5 5 5 5 4 4 4 3 3 3 4 4 4 3 2 3 4 5 5 4 3 4 3 5 7 8 10 11 11 10 8 8 6 4 2 2 3 4 7 7 5 5 4 3 5 4 3 1 3 3 4 6 6 7 4 1 2 1 3 9 6 6 11 9 11 18 17 15 12 9 10 13 16 27 32 28
4 4 5 5 5 4 4 4 4 4 4 5 5 5 5 5 5 5 4 4 3 3 3 3 3 2 2 2 3 4 3 3 3 5 8 9 9 10 11 10 10 9 7 7 6 4 1 2 4 4 5 6 4 5 5 4 5 4 3 1 4 5 5 7 8 7 3 2 6 6 6 9 5 2 5 5 8 15 16 15 17 20 19 19 23 29 29 27
4 5 5 5 5 5 5 4 5 5 5 6 6 6 6 6 6 6 5 4 4 3 3 3 3 3 3 2 2 4 3 4 3 9 11 11 11 11 12 10 9 8 7 6 6 5 2 2 4 5 5 6 5 6 5 4 5 3 3 2 6 5 5 6 6 6 2 5 10 9 9 12 9 3 5 8 11 14 11 9 11 20 24 24 26 28 28 29
5 5 5 5 5 5 5 5 6 7 8 8 8 7 7 8 8 8 7 6 5 4 4 4 4 4 3 2 3 2 3 3 5 12 12 11 12 12 12 11 10 8 6 5 5 4 3 2 2 4 5 4 4 5 4 4 4 3 5 4 4 3 2 3 5 6 4 7 12 11 11 13 12 11 8 7 9 9 7 7 7 14 22 24 25 28 29 30
5 5 6 6 6 6 5 6 7 8 9 10 9 8 8 9 9 8 8 7 5 4 4 4 4 4 3 2 3 1 1 2 5 11 11 11 13 13 12 11 10 8 5 4 4 3 3 2 1 2 4 2 2 3 2 3 4 3 4 4 2 4 2 3 2 3 6 12 14 11 9 8 10 16 15 10 8 3 5 7 11 15 20 23 25 27 27 28
6 6 6 6 6 6 6 7 7 9 10 10 10 8 8 9 9 9 8 7 6 4 4 3 3 3 2 2 3 3 3 2 5 10 10 11 13 14 13 11 10 8 5 4 4 3 3 2 1 2 2 1 2 3 0 2 5 3 4 2 1 3 1 3 2 6 11 14 12 9 10 12 13 15 19 21 13 4 5 9 13 16 19 22 25 26 26 27
7 6 6 6 6 6 7 7 8 9 10 11 10 9 10 9 9 9 9 7 6 5 4 3 3 3 3 2 5 7 8 7 8 10 10 11 13 14 14 11 9 8 6 4 4 3 3 2 2 3 3 2 1 3 1 1 4 4 3 3 4 1 2 2 3 8 11 15 15 14 15 12 12 10 15 20 14 9 13 13 15 17 19 21 24 25 26 26
6 6 6 6 6 6 7 7 7 9 9 10 10 11 10 11 10 10 9 8 7 5 3 2 2 3 3 3 5 8 11 9 9 10 12 13 14 15 14 11 9 7 6 4 3 2 2 1 2 3 2 1 2 2 1 2 1 3 2 3 4 5 8 9 12 14 16 21 21 21 18 15 16 16 14 14 11 14 15 15 17 19 20 21 23 23 24 25
6 6 5 5 5 5 6 6 7 8 8 9 10 11 11 12 11 10 10 9 7 5 3 2 3 3 3 3 3 5 10 9 8 12 15 15 16 16 13 10 7 6 5 3 2 1 1 2 2 2 1 2 3 1 3 1 1 1 0 4 5 7 10 12 15 17 21 21 18 19 15 12 14 13 13 10 10 15 16 18 18 19 21 21 22 22 23 23
5 5 4 4 3 4 5 6 7 7 8 9 10 11 12 12 12 11 10 8 6 5 3 3 3 5 4 4 5 5 8 9 8 13 16 18 18 14 10 8 4 3 3 1 1 1 1 3 2 2 1 2 3 1 2 2 1 1 4 10 10 8 7 8 12 15 16 11 10 14 9 8 8 4 6 6 10 15 17 19 18 19 21 21 22 21 22 22
5 4 4 3 3 3 5 6 7 8 9 9 10 11 12 12 12 11 9 7 5 3 3 3 5 9 7 7 12 8 9 10 10 13 16 19 17 10 9 7 3 3 2 1 1 2 2 3 2 2 1 2 2 0 2 2 2 2 7 10 10 10 10 9 11 10 8 5 11 18 10 10 11 5 4 4 10 14 18 19 18 19 20 20 21 20 21 21
6 5 5 4 4 4 5 6 8 8 9 10 10 11 11 11 11 9 8 6 3 2 2 3 6 8 4 9 17 12 10 11 12 15 17 18 14 9 9 6 3 3 3 2 2 2 1 2 2 3 1 2 1 1 2 3 2 3 5 4 4 7 9 10 5 2 5 5 10 13 6 7 10 4 4 7 11 14 17 19 18 18 19 19 19 20 20 20
7 7 6 6 5 4 4 5 7 8 9 9 10 11 11 10 9 9 8 6 3 2 3 4 5 4 3 9 16 13 11 12 13 14 12 10 8 9 9 5 4 5 5 4 5 4 4 4 3 5 5 2 1 2 2 3 3 3 3 3 2 5 6 12 6 1 5 5 2 6 0 3 4 2 6 10 12 14 16 17 17 18 18 18 18 19 20 20
7 7 6 6 5 5 4 4 5 7 8 9 10 10 10 9 8 8 8 7 6 5 6 7 5 3 6 9 12 16 14 13 13 11 9 8 7 8 7 6 6 6 7 7 7 8 8 8 7 7 8 7 2 1 2 5 5 2 2 3 2 2 2 9 9 5 5 2 4 4 2 3 1 2 7 9 9 13 16 16 16 17 17 18 18 18 19 20
7 6 5 5 5 5 4 3 5 7 8 9 9 8 8 7 7 7 7 7 6 7 6 8 6 4 9 9 8 15 17 15 16 15 13 10 8 7 6 6 7 7 8 9 9 10 10 9 11 10 6 7 5 2 3 5 4 3 2 2 3 3 1 5 10 11 4 1 6 5 2 1 2 6 7 5 7 12 15 15 15 16 17 17 17 18 19 19
6 5 4 5 5 5 4 3 4 6 7 8 8 7 7 5 6 7 9 8 7 6 4 5 4 4 7 6 5 14 21 21 20 16 11 10 10 8 6 5 6 7 9 10 9 9 8 7 11 15 11 7 5 3 3 4 4 4 3 0 3 2 2 3 4 13 10 1 7 8 3 1 1 9 8 6 9 13 15 16 15 15 16 16 17 17 18 19
5 4 4 4 4 4 4 4 4 5 5 6 6 6 4 4 6 8 10 10 9 7 5 5 4 5 8 9 7 13 21 21 20 15 9 9 10 8 6 5 5 7 10 11 9 7 6 6 6 9 12 7 3 2 3 3 4 4 3 2 2 1 2 3 1 11 16 4 5 8 4 2 1 8 8 8 11 12 15 17 16 16 16 16 17 17 18 19
5 4 4 5 5 5 5 5 5 5 4 2 3 5 5 5 5 4 4 3 3 4 5 7 6 5 6 14 12 11 16 20 19 16 10 7 9 8 6 6 5 6 6 8 9 10 7 8 7 3 7 7 5 6 4 0 1 2 3 1 3 2 2 3 3 6 11 7 6 7 5 2 1 4 7 8 11 11 13 16 16 16 17 17 18 18 19 19
5 5 5 6 6 6 6 6 5 4 2 1 2 6 8 10 11 10 10 8 8 6 3 9 10 4 1 13 16 9 11 19 19 15 11 7 7 8 6 7 7 5 4 5 9 14 9 7 9 4 5 6 5 3 2 3 3 3 2 2 0 3 3 3 2 3 5 7 6 4 3 3 3 2 5 8 10 10 12 14 15 16 16 17 18 18 19 20
6 6 6 7 7 7 6 6 5 4 2 3 5 6 7 8 9 12 19 23 21 15 9 11 12 7 4 12 18 11 8 17 21 19 15 10 5 6 8 6 7 11 8 2 4 10 10 7 6 3 4 6 6 3 3 2 1 1 2 3 1 1 3 4 2 4 3 4 4 2 4 3 4 3 5 8 9 10 12 13 14 16 17 18 19 19 20 20
7 7 7 7 7 7 6 5 4 3 1 3 6 7 3 1 3 7 17 22 20 18 16 16 14 11 8 11 18 16 10 12 20 23 18 14 7 4 10 8 6 9 7 2 1 6 9 7 3 4 6 6 5 3 2 2 3 3 4 4 2 1 3 3 1 5 4 3 1 2 4 2 4 4 5 8 8 10 15 16 16 19 20 20 21 21 21 20
8 7 7 7 7 7 6 5 3 2 2 2 6 7 4 3 7 10 14 14 13 15 16 16 16 15 11 8 13 18 19 15 18 25 22 17 13 8 10 12 7 4 6 4 3 5 8 5 6 7 5 3 4 4 3 4 5 4 3 3 2 1 2 3 1 5 5 3 2 2 2 3 5 4 5 9 9 10 15 19 18 20 21 22 22 22 22 22
8 8 8 8 7 6 6 4 2 1 2 2 5 5 5 9 12 14 15 11 9 11 12 15 17 18 15 10 9 14 21 18 15 24 25 17 16 14 12 11 6 4 7 6 5 4 5 3 7 6 1 2 3 6 6 5 4 3 4 4 2 3 2 2 3 4 5 3 3 4 2 3 4 3 5 10 13 12 13 18 19 19 20 22 21 21 22 23
9 9 8 8 7 6 5 4 2 1 2 3 4 5 10 13 15 15 12 8 5 6 9 12 15 17 16 14 10 8 13 16 16 22 23 16 11 10 8 6 5 6 5 5 9 8 4 4 7 5 4 3 2 8 9 6 5 3 2 3 2 3 1 3 3 2 3 4 4 5 2 3 3 3 5 7 11 14 15 16 19 21 21 21 21 21 22 23
8 8 8 8 7 6 6 4 3 1 1 3 3 7 15 16 13 9 6 5 3 5 7 7 10 14 14 15 9 2 5 12 19 22 19 17 11 4 5 5 5 3 1 2 9 8 3 5 5 4 6 5 6 7 6 3 3 3 2 2 1 2 3 4 3 2 3 3 0 2 3 3 3 4 7 5 5 10 12 14 19 23 23 23 24 24 24 24
8 8 9 8 7 7 6 4 2 1 1 3 4 10 18 17 10 4 3 4 2 5 6 5 7 10 13 17 11 1 3 6 13 20 16 14 12 4 3 5 4 3 2 2 5 4 2 6 5 5 6 8 8 5 3 2 4 3 2 1 2 1 4 4 1 2 2 1 2 3 2 3 4 4 6 5 5 8 9 12 18 23 24 26 28 27 26 25
9 8 8 9 8 6 4 2 1 1 2 4 7 14 18 15 7 3 3 4 4 4 5 5 5 8 10 16 15 4 1 8 8 17 18 12 11 8 5 4 3 2 1 2 4 1 2 7 7 7 7 7 6 3 3 2 4 1 1 1 3 3 2 2 2 3 1 1 2 3 2 1 4 4 3 2 5 8 9 11 16 21 25 28 30 30 28 27
9 9 9 9 8 5 3 1 0 1 2 4 9 14 16 12 5 3 4 4 4 2 4 4 3 8 7 13 20 12 4 9 6 12 17 11 11 12 9 3 3 1 2 4 3 1 1 5 6 6 6 5 2 2 3 2 1 2 1 1 3 1 1 2 4 3 1 3 2 4 2 1 4 4 3 1 3 8 12 13 14 20 27 30 32 32 30 28
9 9 10 9 7 4 2 1 1 2 3 5 8 12 14 11 4 3 5 2 3 2 3 4 3 8 9 9 17 16 10 11 8 10 13 11 10 11 9 4 4 4 5 6 5 2 0 1 1 3 4 3 3 5 3 4 2 4 2 2 3 3 3 3 4 3 3 3 2 4 1 1 5 4 1 1 3 8 11 10 12 20 27 30 32 31 30 29
10 10 10 8 5 3 2 1 1 2 3 6 8 11 14 10 4 5 3 1 2 3 4 6 3 8 12 7 10 15 10 9 11 13 14 13 14 15 11 6 6 5 6 8 5 1 2 1 0 3 2 3 4 4 2 4 5 5 4 3 3 4 4 3 2 3 5 2 5 4 3 3 2 5 3 3 4 6 7 6 8 14 22 27 29 29 28 28
10 10 10 8 5 3 1 2 2 3 4 7 11 15 15 6 4 5 1 2 1 4 4 5 3 5 9 5 4 10 6 7 14 13 11 11 14 16 11 6 6 6 4 6 5 4 5 3 1 2 2 4 2 2 2 2 4 4 4 3 2 3 4 4 5 4 4 3 5 2 2 3 2 5 5 5 7 6 6 6 6 9 17 22 24 26 26 26
10 10 9 7 6 5 1 2 3 4 6 11 17 17 12 2 3 2 2 3 2 3 2 2 3 4 5 4 4 6 4 5 10 9 5 4 6 8 6 2 2 4 3 3 3 4 3 1 4 3 2 6 4 2 3 4 5 5 4 5 4 2 4 3 4 3 0 4 3 0 2 1 5 7 7 8 9 9 11 11 10 10 14 17 19 21 23 25
9 10 9 7 7 6 2 3 4 6 10 18 19 10 6 4 0 2 3 2 1 2 1 1 3 2 2 4 4 5 3 3 6 6 2 2 4 3 2 2 1 1 1 1 2 4 3 3 6 3 2 5 4 3 2 3 5 5 3 4 3 2 4 2 3 3 3 5 3 2 2 3 4 6 7 8 8 10 15 17 15 13 14 16 17 18 20 23
8 10 9 6 6 6 4 4 6 8 15 19 12 3 5 2 2 1 2 2 1 2 1 1 3 3 3 4 2 3 3 2 4 5 4 3 5 3 3 5 5 3 2 3 2 1 1 2 4 2 2 5 4 2 1 2 2 3 2 4 2 3 3 2 3 2 4 6 5 3 1 3 3 3 5 6 7 7 12 16 16 16 18 18 19 19 21 23
7 9 8 6 7 7 5 5 7 12 18 15 5 6 3 2 2 1 1 3 1 2 2 1 3 4 3 3 3 1 1 2 3 4 5 4 2 2 2 3 4 3 3 2 1 1 2 3 5 2 2 1 2 0 2 4 1 2 2 4 2 2 3 1 3 4 1 3 4 3 3 5 4 5 5 4 7 8 11 15 16 19 22 19 20 23 23 24
7 10 11 10 9 8 6 6 8 14 17 10 6 5 2 3 2 2 2 1 0 0 2 2 4 5 3 4 4 4 2 2 3 3 3 2 1 1 1 2 3 2 3 2 1 1 2 3 4 3 1 1 2 1 1 2 0 1 2 1 2 3 5 3 1 0 3 1 4 2 4 5 4 5 4 2 5 8 9 13 17 21 22 19 23 26 26 26
5 8 11 12 12 10 7 6 10 15 12 5 6 2 3 2 2 2 2 1 1 2 3 1 1 2 2 3 3 5 4 2 2 3 2 1 1 1 1 2 1 1 1 2 1 1 2 2 5 1 1 2 2 1 1 2 2 2 1 2 2 2 4 3 0 3 4 1 4 2 4 5 3 4 6 4 5 8 8 10 14 18 19 20 26 29 28 28
4 5 9 12 13 11 7 7 11 13 8 6 5 2 1 1 1 1 2 2 1 2 5 2 0 0 1 0 3 5 4 2 2 3 1 1 0 1 0 1 1 1 1 2 1 1 3 1 5 1 2 4 5 1 1 3 3 3 4 3 2 1 0 1 1 1 1 2 5 5 5 4 4 4 5 4 7 8 8 7 7 12 18 22 28 29 28 28
2 3 8 11 11 10 8 8 9 8 5 6 3 2 1 1 0 1 2 1 1 3 3 2 1 1 2 2 1 3 2 1 1 2 1 0 1 1 1 0 1 2 2 2 2 0 2 1 4 3 1 3 4 2 2 3 3 4 4 2 2 3 4 1 1 2 2 2 3 5 5 4 6 6 6 8 9 8 7 5 5 12 19 23 26 26 26 26
3 2 7 9 6 8 8 7 7 5 5 4 3 2 1 1 1 2 1 1 1 2 1 2 2 2 1 2 1 1 1 1 1 1 1 0 1 2 1 1 1 1 2 2 2 1 2 2 3 4 3 2 1 1 4 4 1 1 2 2 2 1 1 0 1 1 3 2 2 2 4 7 7 5 7 10 9 8 8 6 7 13 17 18 20 22 23 25
2 1 6 7 4 4 5 7 7 7 5 3 2 2 1 2 3 2 2 2 2 2 2 3 3 2 2 1 1 2 0 1 1 1 1 1 1 1 2 3 2 1 2 2 2 1 0 2 2 4 4 2 4 3 3 4 4 4 3 3 3 1 1 1 3 3 2 2 3 3 3 10 7 4 7 9 7 7 9 8 9 13 14 15 17 19 22 24
2 1 4 7 6 4 5 7 7 4 4 3 3 3 2 2 3 2 2 2 2 2 3 3 2 2 2 2 1 2 1 0 0 1 1 2 3 2 3 3 3 1 2 1 1 1 2 2 0 4 4 4 5 3 1 3 3 4 2 2 3 3 4 4 2 3 1 0 1 4 2 9 5 2 5 6 5 6 7 8 12 15 14 14 17 20 22 25
5 4 2 4 6 6 7 6 5 4 4 2 3 4 3 2 2 2 1 1 1 1 2 1 1 1 1 1 1 2 2 1 2 2 2 3 3 3 4 4 2 3 3 0 2 1 1 2 1 4 5 4 5 3 2 2 3 3 1 2 4 2 3 5 5 3 1 2 2 2 3 8 5 2 3 6 6 8 9 10 14 16 15 16 18 21 23 24
11 10 7 3 1 1 4 4 2 2 2 2 3 4 3 3 3 2 0 1 1 1 1 1 1 1 1 1 2 2 2 1 1 2 2 2 2 3 5 5 3 3 3 1 2 3 1 0 2 3 6 6 6 5 5 4 1 2 3 1 3 4 6 3 2 3 1 5 7 4 6 9 4 4 3 5 5 7 12 14 14 16 18 19 20 20 21 21
9 9 12 10 3 3 5 7 8 5 2 3 4 2 2 3 3 2 2 1 1 2 2 1 1 2 2 2 1 0 1 0 1 1 0 1 3 3 5 6 4 3 3 3 4 4 2 1 2 2 1 3 4 4 4 3 1 1 1 2 3 5 7 3 1 3 3 4 6 6 8 8 6 5 5 5 5 7 13 17 17 19 21 21 22 22 21 21
3 2 6 10 11 12 12 10 11 8 5 4 3 1 1 2 1 1 3 2 1 2 3 2 2 2 2 1 1 1 2 1 0 1 1 3 3 2 4 7 6 5 4 5 5 3 2 1 3 6 6 6 7 7 4 1 2 5 5 5 5 5 6 5 4 3 5 3 4 11 11 11 17 14 9 8 7 8 11 15 19 22 22 23 25 24 23 23
3 1 1 4 8 13 13 9 9 9 5 4 3 1 2 1 1 1 1 1 1 3 2 2 2 2 1 2 2 2 3 1 0 1 2 4 4 3 3 5 6 7 5 5 5 3 4 2 5 7 9 11 10 10 6 2 5 10 10 8 8 7 7 8 8 8 6 4 9 13 7 7 20 19 12 12 11 9 10 15 21 24 25 27 29 27 25 24
3 2 3 4 2 4 5 4 6 9 5 3 3 2 2 2 1 2 2 1 1 3 2 0 1 3 4 4 3 1 2 1 1 3 2 2 2 3 2 3 4 6 6 5 4 4 4 3 5 4 7 11 10 11 9 6 8 10 11 12 10 9 11 14 17 12 9 8 17 12 5 10 19 20 17 16 13 12 16 22 25 27 29 31 31 29 27 27
7 8 5 5 4 5 5 5 9 11 6 3 3 2 3 5 5 3 2 1 1 1 2 2 5 4 4 5 4 2 3 1 2 4 2 2 2 1 1 2 2 5 5 4 2 2 3 3 3 2 5 9 10 11 9 6 7 9 12 13 13 12 14 16 18 13 12 17 22 18 16 18 20 20 20 22 24 23 26 29 29 29 31 32 31 29 29 30
10 8 6 10 10 8 8 7 9 8 3 2 2 2 4 6 6 4 2 4 2 1 3 3 5 4 4 4 5 3 7 6 4 5 4 4 2 2 3 3 3 3 3 2 1 2 2 3 1 3 4 8 6 5 4 4 6 10 15 15 14 12 12 14 15 11 10 16 20 18 16 19 21 21 19 25 30 25 23 25 26 28 30 30 29 31 32 32
9 8 12 16 9 3 3 3 3 4 2 1 2 3 3 5 7 5 3 5 5 3 4 5 5 3 2 2 5 8 11 9 7 8 7 6 5 5 4 4 5 5 2 2 1 2 3 2 2 5 4 7 2 5 7 6 7 12 18 19 15 11 9 10 10 9 11 14 14 11 10 14 17 13 10 16 20 15 16 22 25 28 29 28 29 32 34 34
11 14 16 13 5 0 2 1 1 3 2 3 4 4 4 5 8 7 3 4 6 5 4 6 7 5 2 3 7 9 10 9 10 11 10 11 12 10 8 6 7 6 4 4 1 1 3 2 0 2 2 6 4 5 7 8 9 11 12 11 9 9 9 8 7 9 12 11 7 7 10 12 10 7 7 11 11 11 17 23 26 28 29 29 30 32 34 36
Wind_Direction
109 102 91 78 67 57 47 37 27 18 11 5 358 356 352 347 346 344 343 343 330 306 296 293 300 311 336 347 347 357 17 57 57 22 19 9 352 341 336 335 337 340 339 338 341 331 288 257 241 225 220 215 222 218 205 215 184 160 125 163 236 201 192 192 189 194 181 196 184 86 94 126 112 89 101 91 80 82 80 73 80 98 114 143 154 156 158 162
94 79 71 65 61 56 49 42 31 23 15 9 8 3 357 354 353 353 359 1 358 346 327 320 318 326 339 335 350 7 32 104 95 32 25 8 347 343 341 338 336 336 341 339 336 335 290 226 216 213 215 207 211 206 201 202 181 162 114 164 229 201 201 202 195 192 181 163 131 91 100 109 93 98 105 88 55 69 74 65 86 101 107 128 141 151 155 157
81 67 61 58 55 52 48 42 35 30 24 19 11 3 0 1 3 3 5 3 7 6 358 359 352 347 343 339 7 22 76 128 75 20 13 0 348 344 345 343 336 330 337 341 332 330 314 247 219 211 201 193 199 197 190 181 188 188 132 224 242 216 224 240 239 219 212 171 132 101 101 83 62 77 101 112 76 59 60 49 82 104 113 127 135 145 150 153
74 67 64 60 56 54 49 45 42 35 27 18 9 7 9 10 10 10 9 5 4 4 6 7 2 4 0 1 10 21 91 101 30 13 360 348 343 337 339 340 336 329 327 336 326 315 314 292 244 219 197 193 193 186 193 190 194 185 162 214 230 184 225 295 285 240 218 172 138 114 104 78 63 73 81 115 89 47 33 52 99 119 123 131 139 146 152 155
77 73 69 67 64 60 55 51 46 37 29 22 19 22 22 19 16 12 11 8 5 3 3 8 7 12 14 18 15 7 96 34 8 7 354 346 341 330 333 333 331 329 324 323 312 302 297 285 261 208 185 188 161 164 220 198 173 175 204 233 185 163 204 341 359 177 174 153 130 105 96 93 85 65 53 73 85 37 15 75 126 135 135 141 146 149 154 156
82 78 75 74 69 62 53 48 41 35 29 26 27 26 22 16 13 12 10 8 7 2 356 3 11 28 48 48 53 96 109 58 6 7 359 352 344 331 329 329 326 325 321 312 300 292 276 266 262 191 154 116 150 163 133 185 180 199 260 313 51 197 228 338 68 135 155 137 108 98 104 103 99 66 55 68 67 67 89 111 138 141 144 148 149 152 155 155
86 82 79 74 66 54 43 39 33 30 24 24 24 20 15 7 5 4 1 0 358 356 356 3 15 44 63 89 96 85 81 62 18 10 3 354 344 332 329 330 328 324 322 310 299 291 274 274 242 164 115 79 179 185 81 335 184 177 269 359 48 19 25 358 116 132 136 115 100 110 107 82 89 89 66 64 63 90 108 125 144 143 145 151 152 154 155 155
81 75 70 63 55 44 34 29 25 22 18 17 16 12 8 2 358 352 351 352 348 353 353 5 24 55 73 122 120 70 50 35 10 7 357 350 341 331 331 333 332 326 325 310 293 280 272 279 177 148 121 158 176 178 51 339 188 135 272 349 64 63 71 96 113 118 112 107 111 104 87 69 86 99 73 55 76 100 113 132 143 144 146 151 152 152 155 157
70 62 58 55 47 36 25 19 16 12 9 8 7 4 360 355 352 346 346 343 345 358 0 26 40 57 77 126 130 54 30 15 357 355 346 345 341 332 333 337 334 328 331 312 282 258 231 130 127 126 151 183 154 121 46 49 288 144 67 37 85 93 87 103 103 107 111 111 114 95 77 77 87 90 67 54 95 107 121 133 140 148 146 146 148 151 156 158
52 45 46 41 34 26 11 5 2 356 357 359 358 357 352 349 346 343 343 338 346 358 14 47 63 72 87 101 91 63 21 10 345 332 332 341 341 334 340 344 343 349 353 325 233 142 134 124 104 86 124 132 128 82 35 108 345 358 104 75 83 97 83 99 105 105 106 104 106 102 90 59 62 93 73 66 108 119 130 131 139 147 143 142 147 151 156 160
25 20 19 9 10 9 357 351 345 344 345 347 349 349 347 345 343 341 339 335 337 342 31 80 100 91 94 80 70 55 13 7 338 321 326 336 335 337 356 3 24 32 30 50 136 149 118 106 69 41 137 125 106 101 69 65 5 67 120 91 68 78 75 72 107 108 79 85 105 113 113 44 41 66 89 112 124 131 134 130 139 142 139 142 148 152 156 162
1 353 343 340 346 348 348 341 335 333 333 337 341 343 346 346 345 346 346 341 334 338 66 112 126 108 92 56 54 40 13 6 339 326 326 329 334 356 9 16 64 57 41 52 93 126 104 70 37 44 105 154 107 74 90 19 28 95 112 119 27 52 60 25 52 92 39 129 111 97 113 19 24 44 102 132 131 137 135 130 138 139 140 145 150 154 157 162
344 337 328 319 319 324 331 331 328 326 326 332 337 344 349 350 355 3 10 24 37 75 103 119 134 120 72 57 47 34 20 7 343 329 331 338 355 15 20 38 78 64 47 53 70 75 74 61 64 84 75 83 94 64 61 13 71 96 48 100 15 23 25 1 4 4 48 135 115 38 241 318 9 69 132 134 132 141 134 126 136 141 145 149 153 158 159 163
334 326 316 304 297 298 311 324 325 325 327 333 340 350 353 357 11 17 30 51 67 89 106 113 119 84 76 81 50 30 23 12 356 347 8 30 28 28 37 56 70 65 54 60 72 73 79 79 79 87 63 42 58 111 26 16 52 81 9 55 35 45 347 356 16 25 53 155 308 2 232 263 281 163 141 143 146 148 137 130 139 144 148 153 158 162 163 165
328 320 312 299 290 290 299 320 327 329 334 337 342 355 359 9 24 28 48 65 79 94 105 107 104 74 74 81 45 23 18 16 14 11 21 33 37 44 54 68 72 68 67 69 75 82 86 89 76 62 36 25 43 74 19 4 23 35 40 332 348 70 253 332 24 31 43 189 10 33 202 279 191 184 168 176 182 162 146 141 146 149 153 157 162 166 168 169
323 314 303 291 292 292 298 319 327 331 336 338 349 5 12 26 38 55 75 77 83 94 102 92 65 55 65 51 17 17 17 17 17 14 15 24 32 45 57 70 75 72 80 77 77 92 90 84 71 51 37 30 31 60 44 16 359 2 58 327 314 16 334 307 41 25 15 11 23 28 162 154 203 184 188 213 191 169 152 149 154 156 161 165 168 173 175 175
317 307 295 293 299 297 305 319 320 327 333 343 0 13 27 57 70 85 89 81 80 80 80 80 65 74 60 28 5 10 15 16 15 17 22 31 38 50 63 62 80 93 92 82 68 79 74 55 71 48 38 41 8 54 66 11 342 333 28 54 314 311 357 326 287 11 14 45 33 23 101 121 280 167 179 204 186 173 161 158 162 164 168 173 177 180 182 184
316 308 302 302 303 305 309 311 311 314 321 341 18 41 64 80 87 90 94 89 67 70 66 50 58 104 52 18 9 1 13 19 16 21 29 40 46 50 57 45 67 119 101 72 43 38 44 42 64 61 23 24 10 46 82 201 242 297 337 334 331 344 345 334 301 350 14 51 52 28 81 99 316 154 173 191 186 182 171 168 170 174 178 181 185 187 189 192
325 315 308 304 301 303 302 303 305 302 300 205 118 88 89 92 86 70 73 81 64 67 51 22 41 109 33 8 12 7 18 25 21 24 29 37 47 36 33 37 55 95 83 53 23 23 36 39 45 45 359 353 346 27 130 169 174 216 233 179 278 336 296 284 297 347 41 63 42 28 103 150 199 184 178 185 195 195 182 178 179 183 188 189 193 196 198 200
332 323 312 307 302 303 303 303 304 296 284 189 166 129 111 97 79 62 67 72 69 72 70 49 54 71 55 15 19 18 19 29 28 28 25 18 20 18 23 37 64 63 52 36 0 21 51 59 38 7 302 302 306 289 202 163 141 169 119 109 94 312 306 287 275 341 45 86 32 47 115 161 201 221 204 188 194 194 185 186 190 194 197 200 204 206 208 210
335 328 317 316 310 311 311 305 308 292 267 209 183 168 173 102 94 88 77 73 72 73 65 59 58 54 45 24 24 21 17 30 31 31 27 17 20 16 24 41 66 47 13 322 21 33 58 61 0 306 275 272 309 323 143 102 58 67 109 104 58 190 283 284 224 340 358 91 62 96 111 197 230 241 223 189 186 199 197 194 199 204 206 210 214 215 217 217
340 333 330 329 324 326 322 313 311 272 261 240 192 189 206 152 131 117 99 88 76 71 62 54 52 46 39 28 25 21 24 28 19 23 26 30 49 57 46 54 65 37 349 2 61 36 50 42 321 308 272 236 4 20 85 81 71 62 83 104 39 301 291 288 270 351 8 86 171 162 108 261 257 259 235 208 205 218 213 210 215 215 214 217 219 222 223 221
341 336 336 335 332 331 329 320 298 249 264 234 193 189 170 146 132 114 106 105 83 62 49 45 42 36 30 26 15 18 35 37 7 10 16 28 54 58 60 61 60 52 16 29 86 77 62 349 319 337 349 156 29 22 56 62 57 54 64 78 314 313 26 304 295 2 19 54 147 151 107 280 266 277 254 229 224 238 240 232 231 227 225 228 231 232 230 228
339 336 333 333 332 325 330 321 262 263 256 208 185 175 163 148 134 119 105 103 89 47 40 38 32 29 23 15 6 11 43 45 18 8 11 22 44 50 57 59 55 63 32 44 84 90 92 303 319 13 56 121 80 30 39 45 18 352 96 105 297 309 303 245 282 349 15 31 109 126 29 304 243 243 256 237 227 242 253 245 239 236 235 238 239 238 236 237
338 335 329 330 331 323 325 308 261 289 249 198 182 170 163 153 137 120 90 86 75 10 24 29 22 23 13 7 9 36 58 43 25 10 8 23 32 55 63 44 50 57 275 62 76 82 65 343 348 39 40 51 74 44 23 35 25 337 260 155 146 291 276 280 316 11 30 6 5 96 26 309 265 237 241 234 225 246 250 243 241 240 239 238 237 238 238 240
337 336 329 328 330 326 322 302 270 294 236 193 183 167 163 161 140 93 48 71 28 332 359 11 10 14 9 4 0 111 74 22 17 12 15 26 26 69 75 17 49 83 205 141 80 90 12 3 37 73 50 42 54 48 2 62 63 358 299 115 88 325 298 296 307 86 71 304 297 51 81 269 294 280 251 233 231 254 253 244 244 242 240 238 238 239 240 241
336 338 331 329 330 329 321 301 277 274 197 178 176 168 168 167 136 47 14 44 4 321 360 357 1 13 17 16 18 97 49 332 351 12 21 32 30 67 84 5 42 50 254 112 67 50 337 2 21 42 49 45 46 25 336 72 82 1 323 30 334 306 291 277 123 119 162 186 3 20 105 207 290 283 292 247 230 260 262 251 247 241 240 239 239 241 241 243
336 339 335 333 333 332 327 306 193 197 184 177 174 174 177 173 151 36 69 70 340 333 13 354 21 25 31 39 42 72 43 355 9 3 12 37 40 62 80 60 107 28 339 109 118 250 350 10 9 31 40 35 32 293 283 108 90 270 203 16 315 273 170 118 100 100 40 59 348 306 92 73 279 270 345 14 243 268 260 249 243 236 237 238 240 242 243 245
337 338 340 338 334 330 323 316 188 179 189 175 164 174 179 170 154 48 78 114 322 15 18 356 13 360 1 39 41 42 34 26 26 358 18 49 46 63 84 69 108 97 40 81 131 192 91 9 355 76 58 359 283 272 236 137 289 290 119 80 39 60 65 74 88 93 46 47 276 268 131 109 279 272 346 37 255 259 255 252 243 236 237 238 241 243 244 245
336 339 345 345 342 331 292 243 185 166 168 168 158 160 163 153 113 63 64 228 331 356 340 4 0 342 359 27 24 17 26 24 8 11 35 51 51 63 78 63 62 77 43 46 77 227 294 291 219 82 56 281 263 278 224 176 279 324 56 57 31 29 35 51 54 80 61 346 258 237 169 137 297 278 223 195 223 222 232 256 250 236 237 239 242 244 244 245
338 344 349 354 358 345 277 218 187 164 154 156 149 143 145 134 71 89 116 257 332 341 350 17 0 1 20 44 13 359 10 8 4 18 31 32 40 42 43 39 27 40 27 16 19 339 353 35 341 331 344 343 347 314 302 260 306 5 54 57 51 345 4 23 355 39 72 284 254 223 194 157 227 266 237 223 233 213 208 238 240 228 232 238 242 244 244 245
344 349 353 1 8 4 325 197 164 153 149 142 144 144 140 89 20 119 272 308 342 342 7 354 340 21 24 30 19 346 343 358 5 27 34 21 43 32 29 45 8 32 15 340 347 347 6 17 316 317 354 14 31 5 332 340 2 26 36 49 64 1 5 13 332 2 127 250 253 331 328 241 230 251 246 235 237 227 217 223 230 231 235 243 248 250 251 249
350 354 355 4 15 20 50 161 148 145 149 144 144 141 103 73 125 222 294 333 1 340 19 312 341 20 23 29 12 333 359 3 352 18 26 47 61 33 16 42 52 82 22 11 28 358 342 312 337 6 354 4 50 86 359 332 356 13 43 70 84 80 42 324 289 331 285 269 289 340 326 279 273 270 241 224 235 235 227 226 234 244 247 252 257 260 260 255
1 3 1 10 29 36 70 134 145 146 150 148 142 91 57 78 215 210 297 277 290 348 30 26 350 9 47 52 347 317 38 19 351 19 9 29 48 8 335 360 20 70 96 76 76 61 73 306 330 30 323 354 45 106 143 160 7 348 156 124 111 141 132 241 241 234 281 289 298 323 297 211 242 272 230 231 267 261 234 230 237 248 251 254 259 261 260 255
23 24 22 36 48 48 77 129 150 151 155 153 107 54 93 214 241 150 235 261 290 338 332 11 51 43 17 354 334 351 85 354 9 37 17 31 64 3 346 329 349 50 93 64 312 137 95 250 264 290 278 10 45 218 133 106 53 304 148 90 32 183 146 126 201 191 226 313 295 287 234 215 227 260 253 269 287 269 243 240 243 248 250 252 257 258 255 252
43 39 40 50 53 53 78 132 153 153 160 154 67 58 155 206 200 170 203 245 74 13 322 342 49 53 352 318 340 3 18 1 26 44 23 31 178 254 320 268 311 35 103 107 205 170 65 274 284 335 291 123 70 211 151 92 230 2 59 43 255 172 124 100 237 324 62 23 286 275 261 289 319 291 292 346 288 267 252 248 247 248 251 254 255 255 254 252
26 29 34 43 47 51 76 133 151 154 159 122 74 104 211 194 162 188 181 139 152 103 87 61 18 42 342 314 318 327 347 4 31 47 36 343 253 227 305 277 257 338 167 144 186 179 133 273 297 343 187 305 11 120 99 63 115 92 74 217 214 88 85 97 74 353 37 348 280 288 265 291 331 296 311 341 277 265 256 245 248 252 253 253 254 254 253 252
14 17 21 31 42 50 76 127 148 157 147 75 78 135 189 167 177 190 149 119 150 84 77 108 218 65 186 260 302 303 342 8 8 37 60 319 329 169 293 291 217 1 351 145 130 90 111 319 300 243 186 311 350 65 322 1 55 103 143 157 107 95 192 52 74 326 358 283 284 298 289 267 213 231 278 267 237 246 253 245 246 252 249 248 252 254 255 254
1 7 10 20 39 53 74 121 148 156 115 71 97 162 134 154 92 128 136 94 119 89 77 154 187 69 151 165 249 287 346 37 16 41 101 67 323 201 154 221 217 12 24 131 136 221 108 90 287 271 232 302 353 69 222 303 12 67 88 49 32 127 170 201 101 169 192 231 274 314 324 269 224 216 218 225 222 221 237 244 232 241 246 249 253 258 260 260
284 335 4 11 46 63 71 113 122 95 81 95 154 169 97 157 131 88 106 118 110 90 103 187 155 88 167 186 203 261 14 94 137 90 152 207 291 250 218 176 211 344 16 90 96 38 70 103 249 289 330 311 297 207 192 187 173 67 42 343 322 56 137 270 348 129 136 159 208 302 308 272 246 209 201 221 224 209 211 219 230 243 253 260 264 267 271 271
244 321 3 17 68 78 76 92 72 62 83 109 136 123 62 144 134 86 86 117 96 85 131 155 140 139 162 156 211 224 351 28 90 99 243 234 165 253 235 181 186 325 24 61 67 70 105 133 214 285 328 275 237 244 192 170 167 158 171 196 184 149 103 70 313 311 95 147 185 155 278 276 259 193 205 219 215 211 212 211 230 247 258 271 278 280 282 282
162 125 12 39 70 97 102 77 38 43 95 86 77 98 117 127 116 103 108 105 76 71 97 119 118 129 151 164 202 189 153 74 195 144 209 215 192 204 205 176 177 153 113 114 278 220 161 108 133 272 267 244 260 304 90 155 142 122 152 174 129 122 124 128 237 268 104 186 193 113 251 273 266 171 216 232 233 248 238 222 233 248 260 275 284 288 289 288
101 89 30 53 73 87 97 71 16 28 70 87 90 87 101 113 100 116 114 46 28 69 66 77 106 104 173 194 166 163 177 190 192 185 204 223 226 212 186 166 159 142 120 107 270 206 130 79 26 287 292 305 311 342 51 80 96 107 248 130 128 150 139 145 179 192 189 210 157 97 258 266 295 357 260 258 267 271 262 245 242 251 264 278 285 290 291 291
87 68 45 45 154 107 96 111 117 77 71 110 89 58 60 83 71 76 112 6 38 122 103 105 173 154 142 112 109 166 193 179 206 215 184 195 237 223 179 166 159 154 153 182 149 143 192 67 68 343 336 341 343 353 350 346 39 207 243 154 134 110 98 116 157 110 273 224 164 154 246 253 290 353 317 281 286 282 269 259 253 258 270 281 287 292 295 295
91 66 47 52 101 144 112 127 137 134 141 112 86 39 35 64 51 55 101 114 90 115 120 120 154 141 104 84 75 115 188 201 244 249 112 220 254 228 188 191 190 174 182 182 150 139 169 184 121 102 329 293 294 300 285 273 258 237 198 175 181 133 131 166 131 114 242 230 155 187 240 265 300 327 328 310 305 287 272 265 264 268 273 283 292 297 299 299
108 94 42 49 69 84 91 110 119 120 145 130 88 22 69 80 26 47 90 109 108 109 101 105 149 130 72 93 122 270 266 297 59 146 191 236 259 247 194 202 208 205 185 163 160 135 104 198 196 175 193 218 232 245 239 187 263 270 255 221 204 180 163 142 111 184 207 166 210 236 243 282 290 282 284 286 272 268 272 272 273 272 274 285 294 297 297 298
94 95 40 57 64 72 79 93 102 107 141 147 114 168 162 125 325 11 74 204 162 142 110 78 139 159 168 164 162 254 261 309 75 195 208 221 257 289 220 207 213 217 196 163 172 133 92 272 238 195 218 236 241 254 266 278 262 260 259 240 208 191 170 163 199 215 154 127 262 250 205 249 275 276 276 273 267 266 270 273 276 276 278 286 290 289 288 293
96 111 108 116 119 83 79 97 113 105 107 116 110 141 140 130 195 190 190 183 130 167 172 74 246 213 191 173 150 193 262 323 248 228 209 216 278 336 302 224 202 200 182 156 177 139 118 246 237 189 240 257 257 264 267 260 260 258 257 249 229 202 182 195 222 214 158 207 255 258 220 247 269 279 279 273 274 279 278 279 282 281 281 283 283 281 283 289
123 123 103 102 123 120 111 138 135 114 92 82 103 143 159 169 199 215 189 126 19 246 185 211 252 229 189 168 137 158 232 236 264 259 216 187 235 325 309 251 179 178 169 145 185 171 147 239 229 186 275 271 258 267 268 252 264 270 258 247 234 220 206 212 230 221 198 231 252 264 273 271 270 272 276 281 285 284 282 282 280 277 278 280 277 276 281 288
145 143 135 114 99 95 106 130 135 112 72 58 109 175 174 170 194 219 190 167 186 236 183 208 237 206 174 172 150 188 219 189 192 237 188 158 223 212 200 221 169 156 174 147 146 166 175 257 224 108 306 279 265 304 301 236 246 269 269 257 239 226 221 225 237 232 222 243 255 265 275 274 269 269 272 278 280 279 277 276 275 276 280 279 275 276 283 288
159 160 149 127 100 65 112 136 134 107 100 169 150 176 193 198 197 180 178 204 202 192 190 196 190 150 107 178 194 236 245 220 218 236 213 200 228 215 204 208 159 140 159 176 157 139 164 258 6 61 332 283 304 359 323 289 273 272 273 268 247 218 209 221 227 211 207 231 252 266 267 263 267 275 269 263 265 266 266 270 276 280 282 279 276 280 285 288
154 150 149 131 94 339 160 136 84 104 159 203 163 165 202 219 195 163 147 240 223 212 215 187 162 138 109 206 223 251 262 251 252 261 254 245 245 239 236 224 189 171 164 158 161 146 147 168 41 60 301 275 297 336 319 319 312 283 263 254 230 201 203 226 244 223 206 209 232 244 243 253 275 297 284 270 262 257 264 271 277 281 283 282 280 281 286 288